LVL298G LEBL-KMIA

Flight info

Callsign LVL298G
Flight time N/A
Altitude 35000
Route LOBAR N725 NUBLO/N0480F360 DCT SUSOS DCT STG DCT HIDRA/M083F360 DCT 46N020W 46N030W 45N040W 43N050W/M083F380 40N060W/M083F400 DCT SELIM M203 SNAGY/N0476F400 BNFSH3
Aircraft A332/H-SDE3GHIJ2J3J5M1RVWXY/LB2D1

Departure

Time N/A
Airport Josep Tarradellas Barcelona-El Prat Airport (LEBL)

Arrival

Time 2026-05-04 15:32
Airport Miami International Airport (KMIA)
Time Latitude Longitude Altitude Speed Heading
2026-05-04 13:35 33.46846 -71.37343 35220 ft 350 kts 231°
2026-05-04 13:36 33.43846 -71.41935 35307 ft 350 kts 231°
2026-05-04 13:36 33.42342 -71.44235 35536 ft 350 kts 231°
2026-05-04 13:36 33.40842 -71.46527 35842 ft 349 kts 231°
2026-05-04 13:36 33.39348 -71.48809 36145 ft 348 kts 231°
2026-05-04 13:37 33.37859 -71.51082 36443 ft 346 kts 231°
2026-05-04 13:37 33.36373 -71.53348 36754 ft 345 kts 231°
2026-05-04 13:37 33.34894 -71.55602 37058 ft 344 kts 231°
2026-05-04 13:37 33.33419 -71.57850 37298 ft 343 kts 231°
2026-05-04 13:38 33.31945 -71.60094 37569 ft 343 kts 231°
2026-05-04 13:38 33.30490 -71.62308 37838 ft 342 kts 231°
2026-05-04 13:38 33.29020 -71.64542 38104 ft 341 kts 231°
2026-05-04 13:38 33.27557 -71.66767 38371 ft 340 kts 231°
2026-05-04 13:39 33.26096 -71.68985 38653 ft 339 kts 231°
2026-05-04 13:39 33.24639 -71.71196 38924 ft 338 kts 231°
2026-05-04 13:39 33.23186 -71.73401 39086 ft 338 kts 231°
2026-05-04 13:39 33.21728 -71.75612 39202 ft 340 kts 232°
2026-05-04 13:40 33.20261 -71.77834 39325 ft 341 kts 232°
2026-05-04 13:40 33.18790 -71.80062 39448 ft 343 kts 232°
2026-05-04 13:40 33.17311 -71.82300 39570 ft 344 kts 232°
2026-05-04 13:40 33.15826 -71.84546 39703 ft 345 kts 232°
2026-05-04 13:41 33.14336 -71.86799 39810 ft 346 kts 232°
2026-05-04 13:41 33.11342 -71.91320 40066 ft 348 kts 232°
2026-05-04 13:42 33.08316 -71.95885 40194 ft 353 kts 232°
2026-05-04 13:42 33.06791 -71.98184 40218 ft 355 kts 232°
2026-05-04 13:42 33.03747 -72.02765 40219 ft 354 kts 232°
2026-05-04 13:43 33.00685 -72.07367 40219 ft 354 kts 232°
2026-05-04 13:43 32.97623 -72.11964 40222 ft 354 kts 232°
2026-05-04 13:44 32.94559 -72.16559 40219 ft 354 kts 232°
2026-05-04 13:44 32.91494 -72.21149 40195 ft 354 kts 232°
2026-05-04 13:45 32.88427 -72.25736 40245 ft 354 kts 232°
2026-05-04 13:45 32.85343 -72.30339 40220 ft 357 kts 232°
2026-05-04 13:46 32.82259 -72.34938 40219 ft 358 kts 232°
2026-05-04 13:46 32.79146 -72.39575 40219 ft 358 kts 232°
2026-05-04 13:47 32.76038 -72.44202 40219 ft 358 kts 232°
2026-05-04 13:47 32.72929 -72.48824 40219 ft 358 kts 232°
2026-05-04 13:48 32.69817 -72.53444 40199 ft 358 kts 232°
2026-05-04 13:48 32.66712 -72.58047 40214 ft 357 kts 232°
2026-05-04 13:49 32.63625 -72.62620 40215 ft 358 kts 232°
2026-05-04 13:49 32.60500 -72.67243 40214 ft 360 kts 231°
2026-05-04 13:50 32.57363 -72.71877 40214 ft 360 kts 231°
2026-05-04 13:50 32.54225 -72.76508 40214 ft 360 kts 231°
2026-05-04 13:51 32.51084 -72.81136 40214 ft 360 kts 231°
2026-05-04 13:51 32.47941 -72.85762 40204 ft 360 kts 231°
2026-05-04 13:52 32.43226 -72.92692 40212 ft 360 kts 231°
2026-05-04 13:53 32.40078 -72.97310 40208 ft 361 kts 232°
2026-05-04 13:53 32.36907 -73.01956 40206 ft 364 kts 232°
2026-05-04 13:54 32.32133 -73.08944 40208 ft 364 kts 231°
2026-05-04 13:55 32.27352 -73.15927 40209 ft 364 kts 231°
2026-05-04 13:55 32.22585 -73.22876 40206 ft 364 kts 231°
2026-05-04 13:56 32.19392 -73.27523 40206 ft 364 kts 231°
2026-05-04 13:57 32.14585 -73.34509 40206 ft 367 kts 232°
2026-05-04 13:58 32.08117 -73.43888 40203 ft 369 kts 232°
2026-05-04 13:58 32.03285 -73.50879 40206 ft 368 kts 232°
2026-05-04 13:59 32.00052 -73.55549 40196 ft 367 kts 232°
2026-05-04 14:00 31.95204 -73.62544 40199 ft 367 kts 232°
2026-05-04 14:00 31.90345 -73.69538 40201 ft 369 kts 232°
2026-05-04 14:01 31.87081 -73.74232 40198 ft 371 kts 232°
2026-05-04 14:02 31.82176 -73.81273 40191 ft 371 kts 232°
2026-05-04 14:02 31.78927 -73.85929 40197 ft 370 kts 232°
2026-05-04 14:03 31.75658 -73.90606 40196 ft 370 kts 232°
2026-05-04 14:03 31.72388 -73.95280 40191 ft 370 kts 232°
2026-05-04 14:04 31.67475 -74.02292 40196 ft 372 kts 232°
2026-05-04 14:04 31.64174 -74.06996 40192 ft 375 kts 232°
2026-05-04 14:05 31.59192 -74.14084 40183 ft 374 kts 232°
2026-05-04 14:06 31.55886 -74.18780 40187 ft 373 kts 232°
2026-05-04 14:06 31.52605 -74.23435 40198 ft 373 kts 232°
2026-05-04 14:07 31.49300 -74.28120 40184 ft 373 kts 232°
2026-05-04 14:07 31.45992 -74.32802 40184 ft 373 kts 232°
2026-05-04 14:08 31.42679 -74.37486 40192 ft 374 kts 232°
2026-05-04 14:08 31.39342 -74.42198 40183 ft 377 kts 232°
2026-05-04 14:09 31.34323 -74.49273 40180 ft 376 kts 232°
2026-05-04 14:10 31.29310 -74.56327 40186 ft 376 kts 232°
2026-05-04 14:10 31.25968 -74.61023 40187 ft 376 kts 232°
2026-05-04 14:11 31.22621 -74.65721 40189 ft 376 kts 232°
2026-05-04 14:11 31.17621 -74.72727 40188 ft 376 kts 232°
2026-05-04 14:12 31.14274 -74.77410 40160 ft 375 kts 232°
2026-05-04 14:13 31.09253 -74.84424 40181 ft 375 kts 232°
2026-05-04 14:13 31.05909 -74.89089 40175 ft 375 kts 232°
2026-05-04 14:14 31.02560 -74.93755 40181 ft 375 kts 232°
2026-05-04 14:14 30.97535 -75.00745 40176 ft 375 kts 232°
2026-05-04 14:15 30.90838 -75.10043 40165 ft 378 kts 232°
2026-05-04 14:16 30.85750 -75.17091 40167 ft 379 kts 232°
2026-05-04 14:17 30.81228 -75.23345 40179 ft 379 kts 232°
2026-05-04 14:18 30.75578 -75.31144 40166 ft 379 kts 232°
2026-05-04 14:19 30.69347 -75.39728 40165 ft 379 kts 232°
2026-05-04 14:19 30.65944 -75.44407 40170 ft 380 kts 232°
2026-05-04 14:20 30.62516 -75.49117 40168 ft 383 kts 232°
2026-05-04 14:20 30.59070 -75.53844 40163 ft 383 kts 232°
2026-05-04 14:21 30.53900 -75.60926 40167 ft 383 kts 232°
2026-05-04 14:21 30.50448 -75.65647 40167 ft 383 kts 232°
2026-05-04 14:22 30.46997 -75.70361 40164 ft 384 kts 232°
2026-05-04 14:22 30.43567 -75.75042 40158 ft 383 kts 233°
2026-05-04 14:23 30.38379 -75.82110 40165 ft 385 kts 233°
2026-05-04 14:24 30.34893 -75.86854 40162 ft 387 kts 233°
2026-05-04 14:24 30.31396 -75.91604 40162 ft 388 kts 233°
2026-05-04 14:25 30.27899 -75.96350 40157 ft 387 kts 233°
2026-05-04 14:25 30.22647 -76.03467 40159 ft 388 kts 233°
2026-05-04 14:26 30.19145 -76.08205 40142 ft 387 kts 233°
2026-05-04 14:26 30.15644 -76.12936 40157 ft 387 kts 233°
2026-05-04 14:27 30.12139 -76.17667 40159 ft 389 kts 233°
2026-05-04 14:27 30.08632 -76.22396 40157 ft 391 kts 233°
2026-05-04 14:28 30.05091 -76.27165 40157 ft 391 kts 233°
2026-05-04 14:28 30.01548 -76.31930 40157 ft 391 kts 233°
2026-05-04 14:29 29.94455 -76.41452 40157 ft 391 kts 233°
2026-05-04 14:30 29.90909 -76.46205 40153 ft 391 kts 233°
2026-05-04 14:31 29.85581 -76.53334 40156 ft 393 kts 233°
2026-05-04 14:32 29.78415 -76.62905 40148 ft 395 kts 233°
2026-05-04 14:32 29.74849 -76.67658 40148 ft 395 kts 233°
2026-05-04 14:33 29.71256 -76.72441 40119 ft 394 kts 233°
2026-05-04 14:33 29.67672 -76.77208 40146 ft 394 kts 233°
2026-05-04 14:34 29.64088 -76.81968 40145 ft 394 kts 233°
2026-05-04 14:34 29.60585 -76.86788 40170 ft 391 kts 238°
2026-05-04 14:35 29.57558 -76.91981 40147 ft 392 kts 240°
2026-05-04 14:35 29.54580 -76.97237 40146 ft 393 kts 240°
2026-05-04 14:36 29.51592 -77.02494 40139 ft 393 kts 240°
2026-05-04 14:36 29.48622 -77.07707 40141 ft 393 kts 240°
2026-05-04 14:37 29.45628 -77.12954 40143 ft 392 kts 240°
2026-05-04 14:37 29.42640 -77.18183 40142 ft 392 kts 240°
2026-05-04 14:38 29.39652 -77.23406 40143 ft 392 kts 240°
2026-05-04 14:38 29.36654 -77.28640 40138 ft 393 kts 240°
2026-05-04 14:39 29.33646 -77.33885 40136 ft 394 kts 240°
2026-05-04 14:39 29.30635 -77.39127 40139 ft 394 kts 240°
2026-05-04 14:40 29.26114 -77.46985 40138 ft 394 kts 240°
2026-05-04 14:40 29.23097 -77.52222 40119 ft 394 kts 240°
2026-05-04 14:41 29.20100 -77.57415 40134 ft 393 kts 240°
2026-05-04 14:42 29.14059 -77.67869 40128 ft 395 kts 241°
2026-05-04 14:42 29.11027 -77.73104 40126 ft 395 kts 241°
2026-05-04 14:43 29.07992 -77.78337 40130 ft 395 kts 240°
2026-05-04 14:43 29.04958 -77.83562 40126 ft 395 kts 240°
2026-05-04 14:44 29.01920 -77.88789 40121 ft 395 kts 240°
2026-05-04 14:44 28.98900 -77.93977 40076 ft 395 kts 240°
2026-05-04 14:45 28.95858 -77.99197 40128 ft 395 kts 240°
2026-05-04 14:45 28.92812 -78.04418 40123 ft 395 kts 240°
2026-05-04 14:46 28.89758 -78.09644 40126 ft 395 kts 240°
2026-05-04 14:46 28.86704 -78.14865 40123 ft 395 kts 240°
2026-05-04 14:47 28.83646 -78.20086 40121 ft 396 kts 240°
2026-05-04 14:47 28.80587 -78.25303 40122 ft 396 kts 240°
2026-05-04 14:48 28.77526 -78.30516 40120 ft 396 kts 240°
2026-05-04 14:48 28.74462 -78.35728 40122 ft 396 kts 240°
2026-05-04 14:49 28.71415 -78.40905 40122 ft 396 kts 240°
2026-05-04 14:49 28.68343 -78.46117 40116 ft 396 kts 240°
2026-05-04 14:50 28.65269 -78.51327 40116 ft 396 kts 240°
2026-05-04 14:50 28.62193 -78.56534 40111 ft 396 kts 240°
2026-05-04 14:51 28.59115 -78.61737 40113 ft 396 kts 240°
2026-05-04 14:51 28.56034 -78.66940 40111 ft 396 kts 240°
2026-05-04 14:52 28.52945 -78.72149 40108 ft 398 kts 240°
2026-05-04 14:52 28.49844 -78.77372 40109 ft 399 kts 240°
2026-05-04 14:53 28.46739 -78.82596 40109 ft 399 kts 240°
2026-05-04 14:53 28.43650 -78.87785 40104 ft 399 kts 240°
2026-05-04 14:54 28.40542 -78.93002 40102 ft 399 kts 240°
2026-05-04 14:54 28.37403 -78.98205 40102 ft 400 kts 238°
2026-05-04 14:55 28.33454 -79.02745 40099 ft 412 kts 223°
2026-05-04 14:55 28.28270 -79.05781 40102 ft 429 kts 208°
2026-05-04 14:56 28.22560 -79.07918 40091 ft 434 kts 206°
2026-05-04 14:56 28.16817 -79.10027 40097 ft 433 kts 207°
2026-05-04 14:57 28.11098 -79.12146 40094 ft 432 kts 207°
2026-05-04 14:57 28.05381 -79.14270 40097 ft 432 kts 207°
2026-05-04 14:58 27.99706 -79.16378 40089 ft 432 kts 207°
2026-05-04 14:58 27.93991 -79.18499 40047 ft 432 kts 207°
2026-05-04 14:59 27.88290 -79.20611 39722 ft 430 kts 207°
2026-05-04 14:59 27.82633 -79.22705 38874 ft 426 kts 207°
2026-05-04 15:00 27.79822 -79.23744 38413 ft 423 kts 207°
2026-05-04 15:00 27.77033 -79.24775 38011 ft 420 kts 207°
2026-05-04 15:00 27.74266 -79.25796 37615 ft 417 kts 207°
2026-05-04 15:01 27.68799 -79.27815 36821 ft 411 kts 207°
2026-05-04 15:01 27.66078 -79.28821 36427 ft 412 kts 207°
2026-05-04 15:01 27.63344 -79.29833 35979 ft 415 kts 207°
2026-05-04 15:01 27.60589 -79.30852 35558 ft 419 kts 207°
2026-05-04 15:02 27.57811 -79.31877 35108 ft 422 kts 207°
2026-05-04 15:02 27.55011 -79.32910 34613 ft 425 kts 206°
2026-05-04 15:02 27.52182 -79.33952 34072 ft 429 kts 206°
2026-05-04 15:02 27.49331 -79.35001 33375 ft 433 kts 206°
2026-05-04 15:03 27.46463 -79.36055 32720 ft 435 kts 206°
2026-05-04 15:03 27.43579 -79.37114 32045 ft 437 kts 206°
2026-05-04 15:03 27.40679 -79.38179 31358 ft 439 kts 206°
2026-05-04 15:03 27.37767 -79.39247 30644 ft 441 kts 206°
2026-05-04 15:04 27.34845 -79.40319 29880 ft 443 kts 206°
2026-05-04 15:04 27.31932 -79.41384 29393 ft 437 kts 206°
2026-05-04 15:04 27.29099 -79.42417 28929 ft 430 kts 206°
2026-05-04 15:04 27.26265 -79.43453 28433 ft 427 kts 206°
2026-05-04 15:05 27.23440 -79.44488 27965 ft 426 kts 206°
2026-05-04 15:05 27.20618 -79.45522 27498 ft 425 kts 206°
2026-05-04 15:05 27.17820 -79.46545 27018 ft 421 kts 205°
2026-05-04 15:05 27.15039 -79.47561 26563 ft 418 kts 205°
2026-05-04 15:06 27.12280 -79.48568 26101 ft 415 kts 205°
2026-05-04 15:06 27.09541 -79.49568 25637 ft 413 kts 205°
2026-05-04 15:06 27.06819 -79.50562 25155 ft 410 kts 205°
2026-05-04 15:07 27.01438 -79.52524 24243 ft 404 kts 205°
2026-05-04 15:07 26.98769 -79.53497 23774 ft 402 kts 205°
2026-05-04 15:07 26.96122 -79.54461 23261 ft 399 kts 205°
2026-05-04 15:07 26.93494 -79.55417 22792 ft 395 kts 205°
2026-05-04 15:08 26.90886 -79.56366 22331 ft 393 kts 205°
2026-05-04 15:08 26.88257 -79.57325 22022 ft 405 kts 205°
2026-05-04 15:08 26.85582 -79.58298 21543 ft 411 kts 204°
2026-05-04 15:08 26.82865 -79.59277 21132 ft 409 kts 204°
2026-05-04 15:09 26.81039 -79.59932 20870 ft 407 kts 204°
2026-05-04 15:09 26.78354 -79.60897 20476 ft 404 kts 204°
2026-05-04 15:09 26.74830 -79.62164 19996 ft 400 kts 204°
2026-05-04 15:10 26.69573 -79.64056 19255 ft 393 kts 204°
2026-05-04 15:10 26.67833 -79.64679 19111 ft 382 kts 204°
2026-05-04 15:10 26.63033 -79.66392 18510 ft 352 kts 204°
2026-05-04 15:11 26.60701 -79.67221 18034 ft 351 kts 204°
2026-05-04 15:11 26.58376 -79.68041 17587 ft 350 kts 204°
2026-05-04 15:11 26.56090 -79.68844 17220 ft 348 kts 204°
2026-05-04 15:11 26.53783 -79.69653 16880 ft 347 kts 204°
2026-05-04 15:12 26.51486 -79.70458 16549 ft 345 kts 204°
2026-05-04 15:12 26.49198 -79.71259 16218 ft 344 kts 204°
2026-05-04 15:12 26.46953 -79.72132 15911 ft 337 kts 211°
2026-05-04 15:12 26.45021 -79.73505 15717 ft 325 kts 226°
2026-05-04 15:13 26.43422 -79.75270 15514 ft 322 kts 231°
2026-05-04 15:13 26.41914 -79.77104 15316 ft 321 kts 232°
2026-05-04 15:13 26.40419 -79.78944 15104 ft 320 kts 232°
2026-05-04 15:13 26.38933 -79.80787 14902 ft 319 kts 234°
2026-05-04 15:14 26.37590 -79.82739 14690 ft 317 kts 238°
2026-05-04 15:14 26.36325 -79.84747 14494 ft 316 kts 239°
2026-05-04 15:14 26.35084 -79.86739 14331 ft 305 kts 239°
2026-05-04 15:14 26.33915 -79.88610 14146 ft 284 kts 239°
2026-05-04 15:15 26.32807 -79.90382 13969 ft 275 kts 239°
2026-05-04 15:15 26.31717 -79.92133 13761 ft 275 kts 239°
2026-05-04 15:15 26.30621 -79.93890 13537 ft 276 kts 239°
2026-05-04 15:16 26.28438 -79.97381 13216 ft 276 kts 239°
2026-05-04 15:16 26.27339 -79.99135 13018 ft 276 kts 239°
2026-05-04 15:16 26.24614 -80.02162 12679 ft 288 kts 211°
2026-05-04 15:17 26.22687 -80.02864 12477 ft 295 kts 199°
2026-05-04 15:17 26.18666 -80.03768 12090 ft 293 kts 197°
2026-05-04 15:17 26.16667 -80.04203 11917 ft 292 kts 198°
2026-05-04 15:18 26.14673 -80.04646 11729 ft 292 kts 198°
2026-05-04 15:18 26.12678 -80.05095 11535 ft 292 kts 198°
2026-05-04 15:18 26.10690 -80.05544 11347 ft 291 kts 197°
2026-05-04 15:19 26.06723 -80.06464 11012 ft 290 kts 198°
2026-05-04 15:19 26.04754 -80.06965 10739 ft 290 kts 198°
2026-05-04 15:19 26.00853 -80.07978 10242 ft 289 kts 198°
2026-05-04 15:20 25.98893 -80.08488 9998 ft 289 kts 198°
2026-05-04 15:20 25.96940 -80.08995 9735 ft 288 kts 198°
2026-05-04 15:20 25.94989 -80.09502 9489 ft 288 kts 197°
2026-05-04 15:20 25.93075 -80.10108 9251 ft 284 kts 207°
2026-05-04 15:21 25.91444 -80.11273 8997 ft 276 kts 226°
2026-05-04 15:21 25.90106 -80.12791 8779 ft 274 kts 231°
2026-05-04 15:21 25.88047 -80.16260 8316 ft 268 kts 257°
2026-05-04 15:22 25.87819 -80.18302 8096 ft 267 kts 268°
2026-05-04 15:22 25.87761 -80.20366 7888 ft 268 kts 269°
2026-05-04 15:22 25.87668 -80.24496 7184 ft 267 kts 269°
2026-05-04 15:23 25.87611 -80.26552 6870 ft 267 kts 268°
2026-05-04 15:23 25.87551 -80.28588 6562 ft 268 kts 268°
2026-05-04 15:23 25.87487 -80.30652 6233 ft 267 kts 268°
2026-05-04 15:23 25.87418 -80.32713 5921 ft 267 kts 268°
2026-05-04 15:24 25.87286 -80.36819 5287 ft 265 kts 269°
2026-05-04 15:24 25.87077 -80.40874 4993 ft 255 kts 267°
2026-05-04 15:25 25.86946 -80.42770 4987 ft 238 kts 266°
2026-05-04 15:25 25.86820 -80.44563 4980 ft 230 kts 267°
2026-05-04 15:25 25.86695 -80.46329 4777 ft 230 kts 266°
2026-05-04 15:26 25.86448 -80.49896 4519 ft 233 kts 266°
2026-05-04 15:26 25.86176 -80.51649 4366 ft 229 kts 255°
2026-05-04 15:26 25.84176 -80.54223 3400 ft 232 kts 203°
2026-05-04 15:27 25.82585 -80.54445 3063 ft 234 kts 173°
2026-05-04 15:27 25.79899 -80.52817 2993 ft 219 kts 116°
2026-05-04 15:28 25.79261 -80.49669 3004 ft 212 kts 84°
2026-05-04 15:28 25.79341 -80.48039 2999 ft 212 kts 84°
2026-05-04 15:28 25.79463 -80.44803 2588 ft 205 kts 84°
2026-05-04 15:29 25.79526 -80.43239 2289 ft 200 kts 84°
2026-05-04 15:30 25.79762 -80.37629 1327 ft 170 kts 84°
2026-05-04 15:30 25.79913 -80.33926 687 ft 148 kts 84°
2026-05-04 15:31 25.80008 -80.31679 327 ft 147 kts 84°
2026-05-04 15:31 25.80052 -80.30545 132 ft 147 kts 83°
2026-05-04 15:32 25.80145 -80.28117 17 ft 33 kts 97°
2026-05-04 15:32 25.79978 -80.27930 16 ft 16 kts 230°
2026-05-04 15:33 25.79956 -80.28237 19 ft 21 kts 267°
2026-05-04 15:34 25.79937 -80.28742 30 ft 22 kts 268°
2026-05-04 15:34 25.79838 -80.28821 28 ft 21 kts 179°
2026-05-04 15:34 25.79643 -80.28737 28 ft 14 kts 93°
2026-05-04 15:35 25.79569 -80.28576 25 ft 12 kts 179°
2026-05-04 15:35 25.79517 -80.28543 25 ft 8 kts 104°
2026-05-04 15:35 25.79518 -80.28492 25 ft 2 kts 85°
2026-05-04 15:36 25.79520 -80.28475 23 ft 0 kts 85°